Time,TemperatureF,DewpointF,PressureIn,WindDirection,WindDirectionDegrees,WindSpeedMPH,WindSpeedGustMPH,Humidity,HourlyPrecipIn,Conditions,Clouds,dailyrainin,SoftwareType,DateUTC
2013-05-05 00:01:00,53.2,16.2,29.79,ENE,67,0.0,0.0,23,0.00,,,0.00,WUHU216WMR968SP,2013-05-05 07:01:00,
2013-05-05 00:06:00,53.1,16.1,29.79,ENE,66,0.0,0.0,23,0.00,,,0.00,WUHU216WMR968SP,2013-05-05 07:06:00,
2013-05-05 00:11:00,52.7,18.6,29.79,ENE,66,0.0,0.0,26,0.00,,,0.00,WUHU216WMR968SP,2013-05-05 07:11:00,
2013-05-05 00:16:00,52.5,18.4,29.79,ENE,66,0.0,0.0,26,0.00,,,0.00,WUHU216WMR968SP,2013-05-05 07:16:00,
2013-05-05 00:21:00,52.5,18.4,29.79,ENE,66,0.0,0.0,26,0.00,,,0.00,WUHU216WMR968SP,2013-05-05 07:21:00,
2013-05-05 00:26:00,52.3,18.2,29.79,ENE,66,0.0,0.0,26,0.00,,,0.00,WUHU216WMR968SP,2013-05-05 07:26:00,
2013-05-05 00:31:00,52.3,18.2,29.79,North,4,0.0,2.7,26,0.00,,,0.00,WUHU216WMR968SP,2013-05-05 07:31:00,
2013-05-05 00:36:00,52.2,18.2,29.79,North,4,0.0,2.7,26,0.00,,,0.00,WUHU216WMR968SP,2013-05-05 07:36:00,
2013-05-05 00:41:00,51.6,18.5,29.79,North,4,0.0,0.0,27,0.00,,,0.00,WUHU216WMR968SP,2013-05-05 07:41:00,
2013-05-05 00:46:00,51.4,18.3,29.79,North,4,0.0,0.0,27,0.00,,,0.00,WUHU216WMR968SP,2013-05-05 07:46:00,
2013-05-05 00:51:00,51.3,18.2,29.79,North,4,0.0,0.0,27,0.00,,,0.00,WUHU216WMR968SP,2013-05-05 07:51:00,
2013-05-05 00:56:00,51.1,18.1,29.79,North,4,0.0,0.0,27,0.00,,,0.00,WUHU216WMR968SP,2013-05-05 07:56:00,
2013-05-05 01:01:00,50.7,17.7,29.79,North,4,0.0,0.0,27,0.00,,,0.00,WUHU216WMR968SP,2013-05-05 08:01:00,
2013-05-05 01:06:00,50.5,17.6,29.79,North,4,0.0,0.0,27,0.00,,,0.00,WUHU216WMR968SP,2013-05-05 08:06:00,
2013-05-05 01:11:00,50.2,17.3,29.79,North,4,0.0,0.0,27,0.00,,,0.00,WUHU216WMR968SP,2013-05-05 08:11:00,
2013-05-05 01:16:00,50.0,17.1,29.79,North,4,0.0,0.0,27,0.00,,,0.00,WUHU216WMR968SP,2013-05-05 08:16:00,
2013-05-05 01:21:00,49.6,17.6,29.79,North,4,0.0,0.0,28,0.00,,,0.00,WUHU216WMR968SP,2013-05-05 08:21:00,
2013-05-05 01:26:00,49.5,17.5,29.79,North,4,0.0,0.0,28,0.00,,,0.00,WUHU216WMR968SP,2013-05-05 08:26:00,
2013-05-05 01:31:00,49.3,17.3,29.79,North,4,0.0,0.0,28,0.00,,,0.00,WUHU216WMR968SP,2013-05-05 08:31:00,
2013-05-05 01:36:00,49.1,17.2,29.79,North,4,0.0,0.0,28,0.00,,,0.00,WUHU216WMR968SP,2013-05-05 08:36:00,
2013-05-05 01:41:00,48.9,17.8,29.79,North,4,0.0,0.0,29,0.00,,,0.00,WUHU216WMR968SP,2013-05-05 08:41:00,
2013-05-05 01:46:00,48.7,17.6,29.79,North,4,0.0,0.0,29,0.00,,,0.00,WUHU216WMR968SP,2013-05-05 08:46:00,
2013-05-05 01:51:00,48.6,17.5,29.76,North,4,0.0,0.0,29,0.00,,,0.00,WUHU216WMR968SP,2013-05-05 08:51:00,
2013-05-05 01:56:00,48.4,17.4,29.76,North,4,0.0,0.0,29,0.00,,,0.00,WUHU216WMR968SP,2013-05-05 08:56:00,
2013-05-05 02:01:00,48.2,17.2,29.76,North,4,0.0,0.0,29,0.00,,,0.00,WUHU216WMR968SP,2013-05-05 09:01:00,
2013-05-05 02:06:00,48.0,18.6,29.79,North,4,0.0,0.0,31,0.00,,,0.00,WUHU216WMR968SP,2013-05-05 09:06:00,
2013-05-05 02:11:00,47.8,18.4,29.79,North,4,0.0,0.0,31,0.00,,,0.00,WUHU216WMR968SP,2013-05-05 09:11:00,
2013-05-05 02:16:00,47.7,21.1,29.79,North,4,0.0,0.0,35,0.00,,,0.00,WUHU216WMR968SP,2013-05-05 09:16:00,
2013-05-05 02:21:00,47.7,21.8,29.76,North,4,0.0,0.0,36,0.00,,,0.00,WUHU216WMR968SP,2013-05-05 09:21:00,
2013-05-05 02:26:00,47.7,21.8,29.76,North,4,0.0,0.0,36,0.00,,,0.00,WUHU216WMR968SP,2013-05-05 09:26:00,
2013-05-05 02:31:00,47.5,21.0,29.76,North,4,0.0,0.0,35,0.00,,,0.00,WUHU216WMR968SP,2013-05-05 09:31:00,
2013-05-05 02:36:00,47.3,20.1,29.76,North,4,0.0,0.0,34,0.00,,,0.00,WUHU216WMR968SP,2013-05-05 09:36:00,
2013-05-05 02:41:00,47.1,19.9,29.76,North,4,0.0,0.0,34,0.00,,,0.00,WUHU216WMR968SP,2013-05-05 09:41:00,
2013-05-05 02:46:00,46.9,19.7,29.76,North,4,0.0,0.0,34,0.00,,,0.00,WUHU216WMR968SP,2013-05-05 09:46:00,
2013-05-05 02:51:00,46.8,20.3,29.76,North,4,0.0,0.0,35,0.00,,,0.00,WUHU216WMR968SP,2013-05-05 09:51:00,
2013-05-05 03:35:00,45.3,21.0,29.76,North,4,0.0,0.0,38,0.00,,,0.00,WUHU216WMR968SP,2013-05-05 10:35:00,
2013-05-05 03:40:00,45.3,21.0,29.76,North,4,0.0,0.0,38,0.00,,,0.00,WUHU216WMR968SP,2013-05-05 10:40:00,
2013-05-05 03:45:00,45.1,20.8,29.76,North,4,0.0,0.0,38,0.00,,,0.00,WUHU216WMR968SP,2013-05-05 10:45:00,
2013-05-05 03:50:00,45.0,21.3,29.76,North,4,0.0,0.0,39,0.00,,,0.00,WUHU216WMR968SP,2013-05-05 10:50:00,
2013-05-05 03:55:00,45.0,21.3,29.76,North,4,0.0,0.0,39,0.00,,,0.00,WUHU216WMR968SP,2013-05-05 10:55:00,
2013-05-05 04:00:00,44.8,21.1,29.76,North,4,0.0,0.0,39,0.00,,,0.00,WUHU216WMR968SP,2013-05-05 11:00:00,
2013-05-05 04:05:00,44.6,21.0,29.76,North,4,0.0,0.0,39,0.00,,,0.00,WUHU216WMR968SP,2013-05-05 11:05:00,
2013-05-05 04:10:00,44.4,21.4,29.76,North,4,0.0,0.0,40,0.00,,,0.00,WUHU216WMR968SP,2013-05-05 11:10:00,
2013-05-05 04:15:00,44.2,21.2,29.76,North,4,0.0,0.0,40,0.00,,,0.00,WUHU216WMR968SP,2013-05-05 11:15:00,
2013-05-05 04:20:00,44.1,21.1,29.76,North,4,0.0,0.0,40,0.00,,,0.00,WUHU216WMR968SP,2013-05-05 11:20:00,
2013-05-05 04:25:00,44.1,21.1,29.76,North,4,0.0,0.0,40,0.00,,,0.00,WUHU216WMR968SP,2013-05-05 11:25:00,
2013-05-05 04:30:00,43.9,20.9,29.76,North,4,0.0,0.0,40,0.00,,,0.00,WUHU216WMR968SP,2013-05-05 11:30:00,
2013-05-05 04:35:00,43.7,21.3,29.76,North,4,0.0,0.0,41,0.00,,,0.00,WUHU216WMR968SP,2013-05-05 11:35:00,
2013-05-05 04:40:00,43.7,21.3,29.76,North,4,0.0,0.0,41,0.00,,,0.00,WUHU216WMR968SP,2013-05-05 11:40:00,
2013-05-05 04:45:00,43.5,21.2,29.76,North,4,0.0,0.0,41,0.00,,,0.00,WUHU216WMR968SP,2013-05-05 11:45:00,
2013-05-05 04:50:00,43.3,21.0,29.76,North,4,0.0,0.0,41,0.00,,,0.00,WUHU216WMR968SP,2013-05-05 11:50:00,
2013-05-05 04:55:00,43.3,21.6,29.76,North,4,0.0,0.0,42,0.00,,,0.00,WUHU216WMR968SP,2013-05-05 11:55:00,
2013-05-05 05:00:00,43.2,21.5,29.76,North,4,0.0,0.0,42,0.00,,,0.00,WUHU216WMR968SP,2013-05-05 12:00:00,
2013-05-05 05:05:00,43.2,21.5,29.76,North,4,0.0,0.0,42,0.00,,,0.00,WUHU216WMR968SP,2013-05-05 12:05:00,
2013-05-05 05:10:00,43.0,21.3,29.76,North,4,0.0,0.0,42,0.00,,,0.00,WUHU216WMR968SP,2013-05-05 12:10:00,
2013-05-05 05:15:00,43.2,22.6,29.76,North,4,0.0,0.0,44,0.00,,,0.00,WUHU216WMR968SP,2013-05-05 12:15:00,
2013-05-05 05:20:00,43.2,22.6,29.76,North,4,0.0,0.0,44,0.00,,,0.00,WUHU216WMR968SP,2013-05-05 12:20:00,
2013-05-05 05:25:00,43.0,23.0,29.76,North,4,0.0,0.0,45,0.00,,,0.00,WUHU216WMR968SP,2013-05-05 12:25:00,
2013-05-05 05:30:00,43.0,22.4,29.76,North,4,0.0,0.0,44,0.00,,,0.00,WUHU216WMR968SP,2013-05-05 12:30:00,
2013-05-05 05:35:00,42.8,22.2,29.76,North,4,0.0,0.0,44,0.00,,,0.00,WUHU216WMR968SP,2013-05-05 12:35:00,
2013-05-05 05:40:00,42.8,22.2,29.76,North,4,0.0,0.0,44,0.00,,,0.00,WUHU216WMR968SP,2013-05-05 12:40:00,
2013-05-05 05:45:00,42.6,22.6,29.76,North,4,0.0,0.0,45,0.00,,,0.00,WUHU216WMR968SP,2013-05-05 12:45:00,
2013-05-05 05:50:00,42.4,22.4,29.76,North,4,0.0,0.0,45,0.00,,,0.00,WUHU216WMR968SP,2013-05-05 12:50:00,
2013-05-05 05:55:00,42.4,22.4,29.76,North,4,0.0,0.0,45,0.00,,,0.00,WUHU216WMR968SP,2013-05-05 12:55:00,
2013-05-05 06:00:00,42.3,22.3,29.76,North,4,0.0,0.0,45,0.00,,,0.00,WUHU216WMR968SP,2013-05-05 13:00:00,
2013-05-05 06:05:00,42.3,22.3,29.76,North,4,0.0,0.0,45,0.00,,,0.00,WUHU216WMR968SP,2013-05-05 13:05:00,
2013-05-05 06:10:00,42.3,22.3,29.76,North,4,0.0,0.0,45,0.00,,,0.00,WUHU216WMR968SP,2013-05-05 13:10:00,
2013-05-05 06:15:00,42.3,22.3,29.76,North,4,0.0,0.0,45,0.00,,,0.00,WUHU216WMR968SP,2013-05-05 13:15:00,
2013-05-05 06:20:00,42.1,22.2,29.76,North,4,0.0,0.0,45,0.00,,,0.00,WUHU216WMR968SP,2013-05-05 13:20:00,
2013-05-05 06:25:00,42.1,22.7,29.76,NE,35,0.0,0.0,46,0.00,,,0.00,WUHU216WMR968SP,2013-05-05 13:25:00,
2013-05-05 06:30:00,42.3,24.4,29.76,NE,36,0.0,0.0,49,0.00,,,0.00,WUHU216WMR968SP,2013-05-05 13:30:00,
2013-05-05 06:35:00,42.4,24.5,29.76,NE,56,0.0,0.0,49,0.00,,,0.00,WUHU216WMR968SP,2013-05-05 13:35:00,
2013-05-05 06:40:00,42.4,24.5,29.76,East,93,0.0,0.0,49,0.00,,,0.00,WUHU216WMR968SP,2013-05-05 13:40:00,
2013-05-05 06:45:00,42.8,24.9,29.76,East,95,0.0,0.0,49,0.00,,,0.00,WUHU216WMR968SP,2013-05-05 13:45:00,
2013-05-05 06:50:00,43.3,25.9,29.76,East,94,0.0,0.0,50,0.00,,,0.00,WUHU216WMR968SP,2013-05-05 13:50:00,
2013-05-05 06:55:00,44.2,26.7,29.76,East,99,0.0,0.0,50,0.00,,,0.00,WUHU216WMR968SP,2013-05-05 13:55:00,
2013-05-05 07:00:00,45.3,27.2,29.76,East,99,0.0,0.0,49,0.00,,,0.00,WUHU216WMR968SP,2013-05-05 14:00:00,
2013-05-05 07:05:00,46.0,27.3,29.76,ESE,110,0.0,0.0,48,0.00,,,0.00,WUHU216WMR968SP,2013-05-05 14:05:00,
2013-05-05 07:10:00,46.0,25.7,29.76,SE,131,0.0,0.0,45,0.00,,,0.00,WUHU216WMR968SP,2013-05-05 14:10:00,
2013-05-05 07:15:00,46.0,24.6,29.76,South,171,0.0,0.0,43,0.00,,,0.00,WUHU216WMR968SP,2013-05-05 14:15:00,
2013-05-05 07:20:00,47.1,25.6,29.76,SSW,192,0.0,0.0,43,0.00,,,0.00,WUHU216WMR968SP,2013-05-05 14:20:00,
2013-05-05 07:25:00,47.7,25.6,29.76,SSW,193,0.0,0.0,42,0.00,,,0.00,WUHU216WMR968SP,2013-05-05 14:25:00,
2013-05-05 07:30:00,47.8,25.1,29.76,SSW,194,0.0,0.0,41,0.00,,,0.00,WUHU216WMR968SP,2013-05-05 14:30:00,
2013-05-05 07:35:00,48.4,25.0,29.76,SSW,195,0.0,0.0,40,0.00,,,0.00,WUHU216WMR968SP,2013-05-05 14:35:00,
2013-05-05 07:40:00,50.2,26.0,29.76,SSW,196,0.0,0.0,39,0.00,,,0.00,WUHU216WMR968SP,2013-05-05 14:40:00,
2013-05-05 07:45:00,51.1,25.5,29.76,WSW,255,0.0,0.0,37,0.00,,,0.00,WUHU216WMR968SP,2013-05-05 14:45:00,
2013-05-05 07:50:00,51.1,25.5,29.76,WSW,256,0.0,0.0,37,0.00,,,0.00,WUHU216WMR968SP,2013-05-05 14:50:00,
2013-05-05 07:55:00,51.6,25.3,29.76,WSW,254,0.0,0.0,36,0.00,,,0.00,WUHU216WMR968SP,2013-05-05 14:55:00,
2013-05-05 08:00:00,52.0,25.6,29.76,WSW,247,0.0,0.0,36,0.00,,,0.00,WUHU216WMR968SP,2013-05-05 15:00:00,
2013-05-05 08:05:00,52.7,24.9,29.76,WSW,249,0.0,0.0,34,0.00,,,0.00,WUHU216WMR968SP,2013-05-05 15:05:00,
2013-05-05 08:10:00,54.0,23.8,29.76,SW,214,0.0,0.0,31,0.00,,,0.00,WUHU216WMR968SP,2013-05-05 15:10:00,
2013-05-05 08:15:00,55.2,23.3,29.76,South,183,0.0,0.0,29,0.00,,,0.00,WUHU216WMR968SP,2013-05-05 15:15:00,
2013-05-05 08:20:00,56.3,21.7,29.76,ESE,119,3.1,4.9,26,0.00,,,0.00,WUHU216WMR968SP,2013-05-05 15:20:00,
2013-05-05 08:25:00,57.9,22.1,29.76,ENE,64,0.0,4.9,25,0.00,,,0.00,WUHU216WMR968SP,2013-05-05 15:25:00,
2013-05-05 08:30:00,59.4,22.4,29.76,ENE,63,0.0,4.0,24,0.00,,,0.00,WUHU216WMR968SP,2013-05-05 15:30:00,
2013-05-05 08:35:00,60.4,23.3,29.73,SE,124,0.0,3.1,24,0.00,,,0.00,WUHU216WMR968SP,2013-05-05 15:35:00,
2013-05-05 08:40:00,61.3,24.1,29.73,SE,143,0.0,2.7,24,0.00,,,0.00,WUHU216WMR968SP,2013-05-05 15:40:00,
2013-05-05 08:45:00,62.2,21.7,29.73,WNW,303,2.2,4.0,21,0.00,,,0.00,WUHU216WMR968SP,2013-05-05 15:45:00,
2013-05-05 08:50:00,63.0,22.4,29.73,West,280,3.1,4.0,21,0.00,,,0.00,WUHU216WMR968SP,2013-05-05 15:50:00,
2013-05-05 08:55:00,63.0,22.4,29.73,West,280,0.0,4.0,21,0.00,,,0.00,WUHU216WMR968SP,2013-05-05 15:55:00,
2013-05-05 09:00:00,63.9,23.1,29.73,NW,310,3.6,4.9,21,0.00,,,0.00,WUHU216WMR968SP,2013-05-05 16:00:00,
2013-05-05 09:05:00,65.3,20.6,29.73,NNW,331,2.2,4.9,18,0.00,,,0.00,WUHU216WMR968SP,2013-05-05 16:05:00,
2013-05-05 09:10:00,66.2,20.0,29.73,WNW,288,2.2,4.0,17,0.00,,,0.00,WUHU216WMR968SP,2013-05-05 16:10:00,
2013-05-05 09:15:00,67.1,20.8,29.73,WNW,288,0.0,3.1,17,0.00,,,0.00,WUHU216WMR968SP,2013-05-05 16:15:00,
2013-05-05 09:20:00,67.6,21.2,29.73,WNW,288,0.0,3.1,17,0.00,,,0.00,WUHU216WMR968SP,2013-05-05 16:20:00,
2013-05-05 09:25:00,68.0,21.5,29.73,NW,318,3.1,4.0,17,0.00,,,0.00,WUHU216WMR968SP,2013-05-05 16:25:00,
2013-05-05 09:30:00,69.1,22.4,29.73,NW,318,2.2,4.0,17,0.00,,,0.00,WUHU216WMR968SP,2013-05-05 16:30:00,
2013-05-05 09:35:00,69.4,22.6,29.73,WNW,297,0.0,4.0,17,0.00,,,0.00,WUHU216WMR968SP,2013-05-05 16:35:00,
2013-05-05 09:40:00,69.4,22.6,29.73,South,190,0.0,2.2,17,0.00,,,0.00,WUHU216WMR968SP,2013-05-05 16:40:00,
2013-05-05 09:45:00,70.5,23.5,29.73,West,272,0.0,3.1,17,0.00,,,0.00,WUHU216WMR968SP,2013-05-05 16:45:00,
2013-05-05 09:50:00,71.8,23.1,29.73,West,275,0.0,3.6,16,0.00,,,0.00,WUHU216WMR968SP,2013-05-05 16:50:00,
2013-05-05 09:55:00,73.0,24.1,29.73,South,181,0.0,3.6,16,0.00,,,0.00,WUHU216WMR968SP,2013-05-05 16:55:00,
2013-05-05 10:00:00,73.9,24.8,29.73,South,185,0.0,4.0,16,0.00,,,0.00,WUHU216WMR968SP,2013-05-05 17:00:00,
2013-05-05 10:05:00,74.8,25.5,29.70,NW,324,0.0,4.0,16,0.00,,,0.00,WUHU216WMR968SP,2013-05-05 17:05:00,
2013-05-05 10:10:00,75.6,24.6,29.70,WNW,298,0.0,3.1,15,0.00,,,0.00,WUHU216WMR968SP,2013-05-05 17:10:00,
2013-05-05 10:15:00,76.1,25.0,29.70,North,350,0.0,4.0,15,0.00,,,0.00,WUHU216WMR968SP,2013-05-05 17:15:00,
2013-05-05 10:20:00,76.6,25.4,29.70,NW,305,2.7,5.4,15,0.00,,,0.00,WUHU216WMR968SP,2013-05-05 17:20:00,
2013-05-05 10:25:00,77.0,25.7,29.70,WNW,300,3.6,7.6,15,0.00,,,0.00,WUHU216WMR968SP,2013-05-05 17:25:00,
2013-05-05 10:30:00,77.4,26.1,29.70,ESE,115,0.0,8.7,15,0.00,,,0.00,WUHU216WMR968SP,2013-05-05 17:30:00,
2013-05-05 10:35:00,77.9,26.5,29.70,East,95,2.7,8.7,15,0.00,,,0.00,WUHU216WMR968SP,2013-05-05 17:35:00,
2013-05-05 10:40:00,78.3,26.8,29.70,ESE,122,4.9,5.8,15,0.00,,,0.00,WUHU216WMR968SP,2013-05-05 17:40:00,
2013-05-05 10:45:00,78.4,26.9,29.70,NE,35,4.0,6.3,15,0.00,,,0.00,WUHU216WMR968SP,2013-05-05 17:45:00,
2013-05-05 10:50:00,78.6,27.0,29.70,East,101,4.0,6.3,15,0.00,,,0.00,WUHU216WMR968SP,2013-05-05 17:50:00,
2013-05-05 10:55:00,78.6,27.0,29.70,SE,131,4.5,8.3,15,0.00,,,0.00,WUHU216WMR968SP,2013-05-05 17:55:00,
2013-05-05 11:00:00,78.3,26.8,29.70,East,79,4.9,11.4,15,0.00,,,0.00,WUHU216WMR968SP,2013-05-05 18:00:00,
2013-05-05 11:05:00,78.1,26.6,29.70,ESE,117,10.5,15.0,15,0.00,,,0.00,WUHU216WMR968SP,2013-05-05 18:05:00,
2013-05-05 11:10:00,78.6,27.0,29.70,SE,133,3.6,15.0,15,0.00,,,0.00,WUHU216WMR968SP,2013-05-05 18:10:00,
2013-05-05 11:15:00,79.0,27.3,29.70,SE,125,2.2,10.5,15,0.00,,,0.00,WUHU216WMR968SP,2013-05-05 18:15:00,
2013-05-05 11:20:00,79.5,27.7,29.70,ESE,116,4.0,8.7,15,0.00,,,0.00,WUHU216WMR968SP,2013-05-05 18:20:00,
2013-05-05 11:25:00,79.7,27.9,29.70,ESE,108,5.4,7.6,15,0.00,,,0.00,WUHU216WMR968SP,2013-05-05 18:25:00,
2013-05-05 11:30:00,80.4,28.5,29.70,ENE,73,5.4,9.2,15,0.00,,,0.00,WUHU216WMR968SP,2013-05-05 18:30:00,
2013-05-05 11:35:00,80.1,28.2,29.70,East,90,7.2,12.3,15,0.00,,,0.00,WUHU216WMR968SP,2013-05-05 18:35:00,
2013-05-05 11:40:00,79.9,28.1,29.70,ESE,108,2.7,12.3,15,0.00,,,0.00,WUHU216WMR968SP,2013-05-05 18:40:00,
2013-05-05 11:45:00,80.1,28.2,29.70,East,101,6.7,11.9,15,0.00,,,0.00,WUHU216WMR968SP,2013-05-05 18:45:00,
2013-05-05 11:50:00,80.1,28.2,29.68,ESE,111,6.7,10.1,15,0.00,,,0.00,WUHU216WMR968SP,2013-05-05 18:50:00,
2013-05-05 11:55:00,80.1,28.2,29.68,SE,132,6.7,12.3,15,0.00,,,0.00,WUHU216WMR968SP,2013-05-05 18:55:00,
2013-05-05 12:00:00,80.6,26.9,29.68,ESE,111,4.9,12.3,14,0.00,,,0.00,WUHU216WMR968SP,2013-05-05 19:00:00,
2013-05-05 12:05:00,80.6,26.9,29.68,NE,53,4.0,10.5,14,0.00,,,0.00,WUHU216WMR968SP,2013-05-05 19:05:00,
2013-05-05 12:10:00,80.6,26.9,29.68,ESE,115,4.5,13.2,14,0.00,,,0.00,WUHU216WMR968SP,2013-05-05 19:10:00,
2013-05-05 12:15:00,81.1,27.3,29.68,ESE,107,4.5,13.2,14,0.00,,,0.00,WUHU216WMR968SP,2013-05-05 19:15:00,
2013-05-05 12:20:00,81.3,27.5,29.68,SE,127,3.1,8.3,14,0.00,,,0.00,WUHU216WMR968SP,2013-05-05 19:20:00,
2013-05-05 12:25:00,81.1,27.3,29.68,NE,56,7.6,10.5,14,0.00,,,0.00,WUHU216WMR968SP,2013-05-05 19:25:00,
2013-05-05 12:30:00,81.5,27.6,29.68,SE,133,4.0,10.5,14,0.00,,,0.00,WUHU216WMR968SP,2013-05-05 19:30:00,
2013-05-05 12:35:00,81.9,27.9,29.68,SW,230,3.1,13.2,14,0.00,,,0.00,WUHU216WMR968SP,2013-05-05 19:35:00,
2013-05-05 12:40:00,81.5,27.6,29.68,East,90,7.2,13.2,14,0.00,,,0.00,WUHU216WMR968SP,2013-05-05 19:40:00,
2013-05-05 12:45:00,81.9,27.9,29.68,ESE,110,5.4,12.3,14,0.00,,,0.00,WUHU216WMR968SP,2013-05-05 19:45:00,
2013-05-05 12:50:00,82.4,28.3,29.68,NE,56,4.9,8.1,14,0.00,,,0.00,WUHU216WMR968SP,2013-05-05 19:50:00,
2013-05-05 12:55:00,82.2,28.2,29.68,ESE,111,4.5,12.8,14,0.00,,,0.00,WUHU216WMR968SP,2013-05-05 19:55:00,
2013-05-05 13:00:00,82.6,28.5,29.68,East,93,4.5,12.8,14,0.00,,,0.00,WUHU216WMR968SP,2013-05-05 20:00:00,
2013-05-05 13:05:00,82.4,28.3,29.65,ESE,112,5.4,10.5,14,0.00,,,0.00,WUHU216WMR968SP,2013-05-05 20:05:00,
2013-05-05 13:10:00,81.9,27.9,29.65,ESE,118,8.1,12.8,14,0.00,,,0.00,WUHU216WMR968SP,2013-05-05 20:10:00,
2013-05-05 13:15:00,81.9,27.9,29.65,ENE,59,7.2,12.8,14,0.00,,,0.00,WUHU216WMR968SP,2013-05-05 20:15:00,
2013-05-05 13:20:00,82.8,28.6,29.65,ESE,109,3.6,11.0,14,0.00,,,0.00,WUHU216WMR968SP,2013-05-05 20:20:00,
2013-05-05 13:25:00,82.8,28.6,29.65,East,79,4.0,10.5,14,0.00,,,0.00,WUHU216WMR968SP,2013-05-05 20:25:00,
2013-05-05 13:30:00,83.1,28.9,29.65,ENE,62,3.6,10.5,14,0.00,,,0.00,WUHU216WMR968SP,2013-05-05 20:30:00,
2013-05-05 13:35:00,83.7,29.3,29.65,West,277,2.2,6.3,14,0.00,,,0.00,WUHU216WMR968SP,2013-05-05 20:35:00,
2013-05-05 13:40:00,84.0,29.6,29.65,NE,44,2.7,6.7,14,0.00,,,0.00,WUHU216WMR968SP,2013-05-05 20:40:00,
2013-05-05 13:45:00,83.8,29.4,29.65,NNW,342,4.5,8.7,14,0.00,,,0.00,WUHU216WMR968SP,2013-05-05 20:45:00,
2013-05-05 13:50:00,84.2,27.9,29.65,ESE,122,4.5,8.7,13,0.00,,,0.00,WUHU216WMR968SP,2013-05-05 20:50:00,
2013-05-05 13:55:00,84.2,27.9,29.65,ESE,116,6.3,10.1,13,0.00,,,0.00,WUHU216WMR968SP,2013-05-05 20:55:00,
2013-05-05 14:00:00,84.2,27.9,29.65,ENE,76,3.6,10.1,13,0.00,,,0.00,WUHU216WMR968SP,2013-05-05 21:00:00,
2013-05-05 14:05:00,84.4,28.0,29.65,NNW,332,4.9,8.1,13,0.00,,,0.00,WUHU216WMR968SP,2013-05-05 21:05:00,
2013-05-05 14:10:00,84.4,28.0,29.65,ESE,109,3.1,10.5,13,0.00,,,0.00,WUHU216WMR968SP,2013-05-05 21:10:00,
2013-05-05 14:15:00,84.0,29.6,29.65,ESE,122,3.6,10.5,14,0.00,,,0.00,WUHU216WMR968SP,2013-05-05 21:15:00,
2013-05-05 14:20:00,83.8,29.4,29.65,NNE,30,0.0,6.3,14,0.00,,,0.00,WUHU216WMR968SP,2013-05-05 21:20:00,
2013-05-05 14:25:00,84.0,29.6,29.65,East,92,2.2,4.0,14,0.00,,,0.00,WUHU216WMR968SP,2013-05-05 21:25:00,
2013-05-05 14:30:00,84.2,27.9,29.65,SW,229,3.1,4.0,13,0.00,,,0.00,WUHU216WMR968SP,2013-05-05 21:30:00,
2013-05-05 14:35:00,83.7,29.3,29.62,ESE,115,0.0,5.4,14,0.00,,,0.00,WUHU216WMR968SP,2013-05-05 21:35:00,
2013-05-05 14:40:00,83.8,29.4,29.62,ESE,114,4.9,6.3,14,0.00,,,0.00,WUHU216WMR968SP,2013-05-05 21:40:00,
2013-05-05 14:45:00,83.8,29.4,29.62,ENE,57,3.1,8.3,14,0.00,,,0.00,WUHU216WMR968SP,2013-05-05 21:45:00,
2013-05-05 14:50:00,84.4,28.0,29.62,SE,143,2.7,8.3,13,0.00,,,0.00,WUHU216WMR968SP,2013-05-05 21:50:00,
2013-05-05 14:55:00,84.2,27.9,29.62,ESE,108,4.0,6.3,13,0.00,,,0.00,WUHU216WMR968SP,2013-05-05 21:55:00,
2013-05-05 15:00:00,84.0,29.6,29.62,ENE,57,3.1,8.3,14,0.00,,,0.00,WUHU216WMR968SP,2013-05-05 22:00:00,
2013-05-05 15:05:00,84.4,28.0,29.62,ESE,120,0.0,9.2,13,0.00,,,0.00,WUHU216WMR968SP,2013-05-05 22:05:00,
2013-05-05 15:10:00,84.7,28.3,29.62,NE,40,2.2,9.2,13,0.00,,,0.00,WUHU216WMR968SP,2013-05-05 22:10:00,
2013-05-05 15:15:00,85.1,28.6,29.62,East,98,0.0,4.9,13,0.00,,,0.00,WUHU216WMR968SP,2013-05-05 22:15:00,
2013-05-05 15:20:00,85.6,29.0,29.62,NE,39,3.6,8.1,13,0.00,,,0.00,WUHU216WMR968SP,2013-05-05 22:20:00,
2013-05-05 15:25:00,86.0,29.3,29.62,ESE,122,3.6,8.1,13,0.00,,,0.00,WUHU216WMR968SP,2013-05-05 22:25:00,
2013-05-05 15:30:00,85.6,29.0,29.62,ESE,110,2.7,8.7,13,0.00,,,0.00,WUHU216WMR968SP,2013-05-05 22:30:00,
2013-05-05 15:35:00,85.5,28.9,29.62,SE,129,0.0,8.7,13,0.00,,,0.00,WUHU216WMR968SP,2013-05-05 22:35:00,
2013-05-05 15:40:00,86.0,29.3,29.62,SSE,160,3.1,8.1,13,0.00,,,0.00,WUHU216WMR968SP,2013-05-05 22:40:00,
2013-05-05 15:45:00,86.4,29.6,29.62,East,101,2.2,6.3,13,0.00,,,0.00,WUHU216WMR968SP,2013-05-05 22:45:00,
2013-05-05 15:50:00,86.9,30.0,29.62,NE,42,0.0,4.9,13,0.00,,,0.00,WUHU216WMR968SP,2013-05-05 22:50:00,
2013-05-05 15:55:00,87.1,30.2,29.62,ESE,121,3.1,4.9,13,0.00,,,0.00,WUHU216WMR968SP,2013-05-05 22:55:00,
2013-05-05 16:00:00,86.9,30.0,29.62,East,85,3.1,5.4,13,0.00,,,0.00,WUHU216WMR968SP,2013-05-05 23:00:00,
2013-05-05 16:05:00,87.1,30.2,29.59,West,259,2.2,5.4,13,0.00,,,0.00,WUHU216WMR968SP,2013-05-05 23:05:00,
2013-05-05 16:10:00,87.1,30.2,29.59,South,178,2.2,4.9,13,0.00,,,0.00,WUHU216WMR968SP,2013-05-05 23:10:00,
2013-05-05 16:15:00,87.1,30.2,29.59,ESE,106,2.2,6.3,13,0.00,,,0.00,WUHU216WMR968SP,2013-05-05 23:15:00,
2013-05-05 16:20:00,87.1,30.2,29.59,SE,142,3.1,6.3,13,0.00,,,0.00,WUHU216WMR968SP,2013-05-05 23:20:00,
2013-05-05 16:25:00,87.3,30.3,29.59,ESE,116,2.2,5.8,13,0.00,,,0.00,WUHU216WMR968SP,2013-05-05 23:25:00,
2013-05-05 16:30:00,87.4,30.4,29.59,SW,224,2.7,4.0,13,0.00,,,0.00,WUHU216WMR968SP,2013-05-05 23:30:00,
2013-05-05 16:35:00,87.4,30.4,29.59,ESE,115,3.6,7.2,13,0.00,,,0.00,WUHU216WMR968SP,2013-05-05 23:35:00,
2013-05-05 16:40:00,87.6,30.5,29.59,NE,44,2.2,7.2,13,0.00,,,0.00,WUHU216WMR968SP,2013-05-05 23:40:00,
2013-05-05 16:45:00,87.6,30.5,29.59,East,93,4.9,6.3,13,0.00,,,0.00,WUHU216WMR968SP,2013-05-05 23:45:00,
2013-05-05 16:50:00,87.4,30.4,29.59,ENE,76,2.2,6.3,13,0.00,,,0.00,WUHU216WMR968SP,2013-05-05 23:50:00,
2013-05-05 16:55:00,87.8,30.7,29.59,NW,314,2.2,5.8,13,0.00,,,0.00,WUHU216WMR968SP,2013-05-05 23:55:00,
2013-05-05 17:00:00,87.8,30.7,29.59,SE,127,3.6,5.8,13,0.00,,,0.00,WUHU216WMR968SP,2013-05-06 00:00:00,
2013-05-05 17:05:00,88.0,30.9,29.59,ENE,62,0.0,5.8,13,0.00,,,0.00,WUHU216WMR968SP,2013-05-06 00:05:00,
2013-05-05 17:10:00,88.2,31.0,29.59,ESE,118,2.7,8.3,13,0.00,,,0.00,WUHU216WMR968SP,2013-05-06 00:10:00,
2013-05-05 17:15:00,87.8,30.7,29.59,ENE,68,4.0,8.3,13,0.00,,,0.00,WUHU216WMR968SP,2013-05-06 00:15:00,
2013-05-05 17:20:00,87.6,30.5,29.59,ENE,68,0.0,5.8,13,0.00,,,0.00,WUHU216WMR968SP,2013-05-06 00:20:00,
2013-05-05 17:25:00,88.0,30.9,29.59,WNW,296,0.0,3.1,13,0.00,,,0.00,WUHU216WMR968SP,2013-05-06 00:25:00,
2013-05-05 17:30:00,88.0,30.9,29.59,ESE,111,2.7,5.8,13,0.00,,,0.00,WUHU216WMR968SP,2013-05-06 00:30:00,
2013-05-05 17:35:00,88.2,31.0,29.59,NNW,333,2.7,6.3,13,0.00,,,0.00,WUHU216WMR968SP,2013-05-06 00:35:00,
2013-05-05 17:40:00,88.2,31.0,29.59,WNW,298,0.0,6.3,13,0.00,,,0.00,WUHU216WMR968SP,2013-05-06 00:40:00,
2013-05-05 17:45:00,88.5,31.3,29.59,ENE,76,0.0,4.0,13,0.00,,,0.00,WUHU216WMR968SP,2013-05-06 00:45:00,
2013-05-05 17:50:00,88.3,31.1,29.59,SE,127,2.2,4.0,13,0.00,,,0.00,WUHU216WMR968SP,2013-05-06 00:50:00,
2013-05-05 17:55:00,87.6,30.5,29.59,ESE,104,0.0,4.9,13,0.00,,,0.00,WUHU216WMR968SP,2013-05-06 00:55:00,
2013-05-05 18:00:00,87.1,30.2,29.59,East,82,0.0,5.8,13,0.00,,,0.00,WUHU216WMR968SP,2013-05-06 01:00:00,
2013-05-05 18:05:00,86.4,29.6,29.59,NE,41,0.0,5.8,13,0.00,,,0.00,WUHU216WMR968SP,2013-05-06 01:05:00,
2013-05-05 18:10:00,85.6,29.0,29.59,East,98,0.0,4.9,13,0.00,,,0.00,WUHU216WMR968SP,2013-05-06 01:10:00,
2013-05-05 18:15:00,85.6,29.0,29.59,WNW,292,3.1,4.9,13,0.00,,,0.00,WUHU216WMR968SP,2013-05-06 01:15:00,
2013-05-05 18:20:00,85.6,29.0,29.59,WNW,282,0.0,4.9,13,0.00,,,0.00,WUHU216WMR968SP,2013-05-06 01:20:00,
2013-05-05 18:25:00,86.2,29.5,29.59,West,276,0.0,0.0,13,0.00,,,0.00,WUHU216WMR968SP,2013-05-06 01:25:00,
2013-05-05 18:30:00,85.8,29.1,29.59,SW,226,0.0,0.0,13,0.00,,,0.00,WUHU216WMR968SP,2013-05-06 01:30:00,
2013-05-05 18:35:00,86.2,29.5,29.59,East,92,2.7,4.0,13,0.00,,,0.00,WUHU216WMR968SP,2013-05-06 01:35:00,
2013-05-05 18:40:00,86.0,29.3,29.59,East,91,2.2,6.3,13,0.00,,,0.00,WUHU216WMR968SP,2013-05-06 01:40:00,
2013-05-05 18:45:00,86.0,29.3,29.59,ENE,62,0.0,6.3,13,0.00,,,0.00,WUHU216WMR968SP,2013-05-06 01:45:00,
2013-05-05 18:50:00,86.2,29.5,29.59,ESE,114,0.0,5.4,13,0.00,,,0.00,WUHU216WMR968SP,2013-05-06 01:50:00,
2013-05-05 18:55:00,85.6,29.0,29.59,SSE,153,0.0,5.4,13,0.00,,,0.00,WUHU216WMR968SP,2013-05-06 01:55:00,
2013-05-05 19:00:00,85.3,28.7,29.59,SSE,166,0.0,5.4,13,0.00,,,0.00,WUHU216WMR968SP,2013-05-06 02:00:00,
2013-05-05 19:05:00,84.9,28.4,29.59,NE,45,2.7,4.0,13,0.00,,,0.00,WUHU216WMR968SP,2013-05-06 02:05:00,
2013-05-05 19:10:00,84.6,28.2,29.59,SSW,202,2.7,4.0,13,0.00,,,0.00,WUHU216WMR968SP,2013-05-06 02:10:00,
2013-05-05 19:15:00,83.7,29.3,29.59,SE,130,2.7,4.0,14,0.00,,,0.00,WUHU216WMR968SP,2013-05-06 02:15:00,
2013-05-05 19:20:00,82.8,28.6,29.59,SW,225,0.0,3.6,14,0.00,,,0.00,WUHU216WMR968SP,2013-05-06 02:20:00,
2013-05-05 19:25:00,81.7,27.8,29.59,SW,222,0.0,3.1,14,0.00,,,0.00,WUHU216WMR968SP,2013-05-06 02:25:00,
2013-05-05 19:30:00,80.2,28.3,29.59,SW,222,0.0,0.0,15,0.00,,,0.00,WUHU216WMR968SP,2013-05-06 02:30:00,
2013-05-05 19:35:00,79.0,27.3,29.62,SW,222,0.0,0.0,15,0.00,,,0.00,WUHU216WMR968SP,2013-05-06 02:35:00,
2013-05-05 19:40:00,77.0,25.7,29.62,South,172,0.0,0.0,15,0.00,,,0.00,WUHU216WMR968SP,2013-05-06 02:40:00,
2013-05-05 19:45:00,75.9,21.4,29.62,South,182,0.0,0.0,13,0.00,,,0.00,WUHU216WMR968SP,2013-05-06 02:45:00,
2013-05-05 19:50:00,75.0,20.7,29.62,South,182,0.0,0.0,13,0.00,,,0.00,WUHU216WMR968SP,2013-05-06 02:50:00,
2013-05-05 19:55:00,74.3,20.1,29.62,South,182,0.0,0.0,13,0.00,,,0.00,WUHU216WMR968SP,2013-05-06 02:55:00,
2013-05-05 20:00:00,73.6,19.6,29.62,South,182,0.0,0.0,13,0.00,,,0.00,WUHU216WMR968SP,2013-05-06 03:00:00,
2013-05-05 20:05:00,71.2,19.4,29.62,South,182,0.0,0.0,14,0.00,,,0.00,WUHU216WMR968SP,2013-05-06 03:05:00,
2013-05-05 20:10:00,69.8,18.3,29.62,South,182,0.0,0.0,14,0.00,,,0.00,WUHU216WMR968SP,2013-05-06 03:10:00,
2013-05-05 20:15:00,69.6,19.8,29.62,South,182,0.0,0.0,15,0.00,,,0.00,WUHU216WMR968SP,2013-05-06 03:15:00,
2013-05-05 20:20:00,68.2,21.7,29.62,South,182,0.0,0.0,17,0.00,,,0.00,WUHU216WMR968SP,2013-05-06 03:20:00,
2013-05-05 20:25:00,68.2,18.7,29.62,South,182,0.0,0.0,15,0.00,,,0.00,WUHU216WMR968SP,2013-05-06 03:25:00,
2013-05-05 20:30:00,68.0,21.5,29.62,South,182,0.0,0.0,17,0.00,,,0.00,WUHU216WMR968SP,2013-05-06 03:30:00,
2013-05-05 20:35:00,68.0,21.5,29.62,South,182,0.0,0.0,17,0.00,,,0.00,WUHU216WMR968SP,2013-05-06 03:35:00,
2013-05-05 20:40:00,67.6,21.2,29.62,South,182,0.0,0.0,17,0.00,,,0.00,WUHU216WMR968SP,2013-05-06 03:40:00,
2013-05-05 20:45:00,66.9,20.6,29.62,South,183,0.0,0.0,17,0.00,,,0.00,WUHU216WMR968SP,2013-05-06 03:45:00,
2013-05-05 20:50:00,65.7,21.0,29.62,South,182,0.0,0.0,18,0.00,,,0.00,WUHU216WMR968SP,2013-05-06 03:50:00,
2013-05-05 20:55:00,65.1,20.5,29.62,South,182,0.0,0.0,18,0.00,,,0.00,WUHU216WMR968SP,2013-05-06 03:55:00,
2013-05-05 21:00:00,64.8,20.2,29.62,South,182,0.0,0.0,18,0.00,,,0.00,WUHU216WMR968SP,2013-05-06 04:00:00,
2013-05-05 21:01:00,64.6,20.1,29.62,South,182,0.0,0.0,18,0.00,,,0.00,WUHU216WMR968SP,2013-05-06 04:01:00,
2013-05-05 21:06:00,64.2,19.7,29.65,South,182,0.0,0.0,18,0.00,,,0.00,WUHU216WMR968SP,2013-05-06 04:06:00,
2013-05-05 21:11:00,62.4,21.9,29.65,South,183,0.0,0.0,21,0.00,,,0.00,WUHU216WMR968SP,2013-05-06 04:11:00,
2013-05-05 21:16:00,62.6,22.0,29.65,South,182,0.0,0.0,21,0.00,,,0.00,WUHU216WMR968SP,2013-05-06 04:16:00,
2013-05-05 21:21:00,62.8,22.2,29.65,South,182,0.0,0.0,21,0.00,,,0.00,WUHU216WMR968SP,2013-05-06 04:21:00,
2013-05-05 21:26:00,61.9,21.4,29.65,South,182,0.0,0.0,21,0.00,,,0.00,WUHU216WMR968SP,2013-05-06 04:26:00,
2013-05-05 21:31:00,61.9,21.4,29.65,South,182,0.0,0.0,21,0.00,,,0.00,WUHU216WMR968SP,2013-05-06 04:31:00,
2013-05-05 21:36:00,62.1,21.6,29.65,South,182,0.0,0.0,21,0.00,,,0.00,WUHU216WMR968SP,2013-05-06 04:36:00,
2013-05-05 21:41:00,61.9,21.4,29.65,South,182,0.0,0.0,21,0.00,,,0.00,WUHU216WMR968SP,2013-05-06 04:41:00,
2013-05-05 21:46:00,61.7,24.4,29.65,South,182,0.0,0.0,24,0.00,,,0.00,WUHU216WMR968SP,2013-05-06 04:46:00,
2013-05-05 21:51:00,60.6,23.5,29.65,South,190,0.0,0.0,24,0.00,,,0.00,WUHU216WMR968SP,2013-05-06 04:51:00,
2013-05-05 21:56:00,59.7,22.7,29.65,WNW,284,2.2,3.1,24,0.00,,,0.00,WUHU216WMR968SP,2013-05-06 04:56:00,
2013-05-05 22:01:00,61.9,21.4,29.65,South,185,4.0,6.3,21,0.00,,,0.00,WUHU216WMR968SP,2013-05-06 05:01:00,
2013-05-05 22:06:00,64.0,19.6,29.70,South,190,3.6,6.3,18,0.00,,,0.00,WUHU216WMR968SP,2013-05-06 05:06:00,
2013-05-05 22:11:00,66.9,20.6,29.70,SSW,207,3.6,5.8,17,0.00,,,0.00,WUHU216WMR968SP,2013-05-06 05:11:00,
2013-05-05 22:16:00,67.6,21.2,29.70,SSW,198,2.2,5.8,17,0.00,,,0.00,WUHU216WMR968SP,2013-05-06 05:16:00,
2013-05-05 22:21:00,67.1,20.8,29.70,SW,214,4.0,5.8,17,0.00,,,0.00,WUHU216WMR968SP,2013-05-06 05:21:00,
2013-05-05 22:26:00,66.6,20.4,29.70,SSW,208,2.7,5.4,17,0.00,,,0.00,WUHU216WMR968SP,2013-05-06 05:26:00,
2013-05-05 22:31:00,65.8,21.1,29.70,SW,216,3.6,6.3,18,0.00,,,0.00,WUHU216WMR968SP,2013-05-06 05:31:00,
2013-05-05 22:36:00,65.3,20.6,29.70,West,271,2.2,6.3,18,0.00,,,0.00,WUHU216WMR968SP,2013-05-06 05:36:00,
2013-05-05 22:41:00,64.6,20.1,29.70,SSW,203,2.2,5.8,18,0.00,,,0.00,WUHU216WMR968SP,2013-05-06 05:41:00,
2013-05-05 22:46:00,64.0,19.6,29.70,SW,229,0.0,5.8,18,0.00,,,0.00,WUHU216WMR968SP,2013-05-06 05:46:00,
2013-05-05 22:51:00,63.7,19.3,29.73,WSW,241,0.0,4.0,18,0.00,,,0.00,WUHU216WMR968SP,2013-05-06 05:51:00,
2013-05-05 22:56:00,63.1,18.8,29.73,SW,216,0.0,4.5,18,0.00,,,0.00,WUHU216WMR968SP,2013-05-06 05:56:00,
2013-05-05 23:01:00,62.8,18.6,29.73,SW,222,3.1,4.5,18,0.00,,,0.00,WUHU216WMR968SP,2013-05-06 06:01:00,
2013-05-05 23:06:00,62.6,18.4,29.73,SW,223,3.6,5.4,18,0.00,,,0.00,WUHU216WMR968SP,2013-05-06 06:06:00,
2013-05-05 23:11:00,62.4,19.5,29.73,SSE,168,0.0,5.4,19,0.00,,,0.00,WUHU216WMR968SP,2013-05-06 06:11:00,
2013-05-05 23:16:00,62.2,19.4,29.73,NW,318,0.0,3.6,19,0.00,,,0.00,WUHU216WMR968SP,2013-05-06 06:16:00,
2013-05-05 23:21:00,61.9,19.1,29.73,NW,318,0.0,3.6,19,0.00,,,0.00,WUHU216WMR968SP,2013-05-06 06:21:00,
2013-05-05 23:26:00,61.3,18.6,29.73,NW,318,0.0,0.0,19,0.00,,,0.00,WUHU216WMR968SP,2013-05-06 06:26:00,
2013-05-05 23:31:00,61.0,18.4,29.73,NNW,335,0.0,0.0,19,0.00,,,0.00,WUHU216WMR968SP,2013-05-06 06:31:00,
2013-05-05 23:36:00,61.0,18.4,29.73,NW,308,0.0,4.0,19,0.00,,,0.00,WUHU216WMR968SP,2013-05-06 06:36:00,
2013-05-05 23:41:00,61.0,20.7,29.73,WNW,299,2.7,6.3,21,0.00,,,0.00,WUHU216WMR968SP,2013-05-06 06:41:00,
2013-05-05 23:46:00,61.0,18.4,29.73,WNW,299,0.0,6.3,19,0.00,,,0.00,WUHU216WMR968SP,2013-05-06 06:46:00,
2013-05-05 23:51:00,60.8,20.5,29.73,North,353,0.0,2.7,21,0.00,,,0.00,WUHU216WMR968SP,2013-05-06 06:51:00,
2013-05-05 23:56:00,60.3,21.2,29.73,North,353,0.0,2.7,22,0.00,,,0.00,WUHU216WMR968SP,2013-05-06 06:56:00,